Year,Month,Day,Hour,Minute,Value (Times are PST for temperature in C)
2008,04,28,00,00,8.70
2008,04,28,00,01,8.70
2008,04,28,00,02,8.70
2008,04,28,00,03,8.70
2008,04,28,00,04,8.70
2008,04,28,00,05,8.70
2008,04,28,00,06,8.70
2008,04,28,00,07,8.70
2008,04,28,00,08,8.80
2008,04,28,00,09,8.80
2008,04,28,00,10,8.80
2008,04,28,00,11,8.80
2008,04,28,00,12,8.80
2008,04,28,00,13,8.80
2008,04,28,00,14,8.80
2008,04,28,00,15,8.80
2008,04,28,00,16,8.80
2008,04,28,00,17,8.80
2008,04,28,00,18,8.80
2008,04,28,00,19,8.90
2008,04,28,00,20,8.90
2008,04,28,00,21,8.90
2008,04,28,00,22,8.90
2008,04,28,00,23,8.90
2008,04,28,00,24,8.90
2008,04,28,00,25,8.90
2008,04,28,00,26,8.90
2008,04,28,00,27,8.90
2008,04,28,00,28,8.90
2008,04,28,00,29,8.90
2008,04,28,00,30,8.90
2008,04,28,00,31,8.90
2008,04,28,00,32,8.90
2008,04,28,00,33,8.90
2008,04,28,00,34,8.90
2008,04,28,00,35,8.90
2008,04,28,00,36,8.90
2008,04,28,00,37,8.90
2008,04,28,00,38,8.90
2008,04,28,00,39,8.90
2008,04,28,00,40,9.00
2008,04,28,00,41,9.00
2008,04,28,00,42,9.00
2008,04,28,00,43,9.00
2008,04,28,00,44,9.00
2008,04,28,00,45,9.00
2008,04,28,00,46,9.00
2008,04,28,00,47,9.00
2008,04,28,00,48,9.00
2008,04,28,00,49,9.00
2008,04,28,00,50,9.00
2008,04,28,00,51,9.00
2008,04,28,00,52,9.10
2008,04,28,00,53,9.10
2008,04,28,00,54,9.10
2008,04,28,00,55,9.10
2008,04,28,00,56,9.10
2008,04,28,00,57,9.10
2008,04,28,00,58,9.10
2008,04,28,00,59,9.10
2008,04,28,01,00,9.10
2008,04,28,01,01,9.10
2008,04,28,01,02,9.10
2008,04,28,01,03,9.10
2008,04,28,01,04,9.10
2008,04,28,01,05,9.10
2008,04,28,01,06,9.10
2008,04,28,01,07,9.10
2008,04,28,01,08,9.10
2008,04,28,01,09,9.20
2008,04,28,01,10,9.20
2008,04,28,01,11,9.20
2008,04,28,01,12,9.20
2008,04,28,01,13,9.20
2008,04,28,01,14,9.20
2008,04,28,01,15,9.20
2008,04,28,01,16,9.20
2008,04,28,01,17,9.20
2008,04,28,01,18,9.20
2008,04,28,01,19,9.20
2008,04,28,01,20,9.20
2008,04,28,01,21,9.20
2008,04,28,01,22,9.20
2008,04,28,01,23,9.20
2008,04,28,01,24,9.20
2008,04,28,01,25,9.20
2008,04,28,01,26,9.20
2008,04,28,01,27,9.20
2008,04,28,01,28,9.20
2008,04,28,01,29,9.20
2008,04,28,01,30,9.20
2008,04,28,01,31,9.20
2008,04,28,01,32,9.20
2008,04,28,01,33,9.20
2008,04,28,01,34,9.20
2008,04,28,01,35,9.20
2008,04,28,01,36,9.20
2008,04,28,01,37,9.20
2008,04,28,01,38,9.20
2008,04,28,01,39,9.20
2008,04,28,01,40,9.20
2008,04,28,01,41,9.20
2008,04,28,01,42,9.20
2008,04,28,01,43,9.20
2008,04,28,01,44,9.20
2008,04,28,01,45,9.20
2008,04,28,01,46,9.20
2008,04,28,01,47,9.30
2008,04,28,01,48,9.30
2008,04,28,01,49,9.30
2008,04,28,01,50,9.30
2008,04,28,01,51,9.30
2008,04,28,01,52,9.30
2008,04,28,01,53,9.30
2008,04,28,01,54,9.30
2008,04,28,01,55,9.30
2008,04,28,01,56,9.30
2008,04,28,01,57,9.30
2008,04,28,01,58,9.30
2008,04,28,01,59,9.30
2008,04,28,02,00,9.30
2008,04,28,02,01,9.30
2008,04,28,02,02,9.30
2008,04,28,02,03,9.30
2008,04,28,02,04,9.30
2008,04,28,02,05,9.30
2008,04,28,02,06,9.30
2008,04,28,02,07,9.30
2008,04,28,02,08,9.30
2008,04,28,02,09,9.30
2008,04,28,02,10,9.40
2008,04,28,02,11,9.40
2008,04,28,02,12,9.40
2008,04,28,02,13,9.40
2008,04,28,02,14,9.40
2008,04,28,02,15,9.40
2008,04,28,02,16,9.40
2008,04,28,02,17,9.40
2008,04,28,02,18,9.40
2008,04,28,02,19,9.40
2008,04,28,02,20,9.40
2008,04,28,02,21,9.40
2008,04,28,02,22,9.40
2008,04,28,02,23,9.40
2008,04,28,02,24,9.40
2008,04,28,02,25,9.40
2008,04,28,02,26,9.40
2008,04,28,02,27,9.40
2008,04,28,02,28,9.50
2008,04,28,02,29,9.50
2008,04,28,02,30,9.50
2008,04,28,02,31,9.50
2008,04,28,02,32,9.50
2008,04,28,02,33,9.50
2008,04,28,02,34,9.60
2008,04,28,02,35,9.60
2008,04,28,02,36,9.60
2008,04,28,02,37,9.60
2008,04,28,02,38,9.70
2008,04,28,02,39,9.70
2008,04,28,02,40,9.70
2008,04,28,02,41,9.70
2008,04,28,02,42,9.70
2008,04,28,02,43,9.70
2008,04,28,02,44,9.70
2008,04,28,02,45,9.70
2008,04,28,02,46,9.70
2008,04,28,02,47,9.70
2008,04,28,02,48,9.70
2008,04,28,02,49,9.70
2008,04,28,02,50,9.70
2008,04,28,02,51,9.70
2008,04,28,02,52,9.70
2008,04,28,02,53,9.70
2008,04,28,02,54,9.70
2008,04,28,02,55,9.70
2008,04,28,02,56,9.70
2008,04,28,02,57,9.70
2008,04,28,02,58,9.70
2008,04,28,02,59,9.70
2008,04,28,03,00,9.70
2008,04,28,03,01,9.70
2008,04,28,03,02,9.70
2008,04,28,03,03,9.70
2008,04,28,03,04,9.70
2008,04,28,03,05,9.70
2008,04,28,03,06,9.70
2008,04,28,03,07,9.70
2008,04,28,03,08,9.70
2008,04,28,03,09,9.70
2008,04,28,03,10,9.70
2008,04,28,03,11,9.70
2008,04,28,03,12,9.70
2008,04,28,03,13,9.70
2008,04,28,03,14,9.70
2008,04,28,03,15,9.70
2008,04,28,03,16,9.70
2008,04,28,03,17,9.70
2008,04,28,03,18,9.70
2008,04,28,03,19,9.70
2008,04,28,03,20,9.70
2008,04,28,03,21,9.70
2008,04,28,03,22,9.70
2008,04,28,03,23,9.70
2008,04,28,03,24,9.70
2008,04,28,03,25,9.70
2008,04,28,03,26,9.70
2008,04,28,03,27,9.70
2008,04,28,03,28,9.70
2008,04,28,03,29,9.70
2008,04,28,03,30,9.70
2008,04,28,03,31,9.70
2008,04,28,03,32,9.70
2008,04,28,03,33,9.70
2008,04,28,03,34,9.70
2008,04,28,03,35,9.70
2008,04,28,03,36,9.70
2008,04,28,03,37,9.70
2008,04,28,03,38,9.70
2008,04,28,03,39,9.70
2008,04,28,03,40,9.70
2008,04,28,03,41,9.70
2008,04,28,03,42,9.70
2008,04,28,03,43,9.70
2008,04,28,03,44,9.70
2008,04,28,03,45,9.70
2008,04,28,03,46,9.70
2008,04,28,03,47,9.70
2008,04,28,03,48,9.70
2008,04,28,03,49,9.70
2008,04,28,03,50,9.70
2008,04,28,03,51,9.70
2008,04,28,03,52,9.70
2008,04,28,03,53,9.70
2008,04,28,03,54,9.70
2008,04,28,03,55,9.70
2008,04,28,03,56,9.70
2008,04,28,03,57,9.70
2008,04,28,03,58,9.70
2008,04,28,03,59,9.70
2008,04,28,04,00,9.70
2008,04,28,04,01,9.70
2008,04,28,04,02,9.70
2008,04,28,04,03,9.70
2008,04,28,04,04,9.70
2008,04,28,04,05,9.70
2008,04,28,04,06,9.70
2008,04,28,04,07,9.70
2008,04,28,04,08,9.70
2008,04,28,04,09,9.70
2008,04,28,04,10,9.70
2008,04,28,04,11,9.70
2008,04,28,04,12,9.70
2008,04,28,04,13,9.70
2008,04,28,04,14,9.70
2008,04,28,04,15,9.70
2008,04,28,04,16,9.70
2008,04,28,04,17,9.70
2008,04,28,04,18,9.70
2008,04,28,04,19,9.70
2008,04,28,04,20,9.70
2008,04,28,04,21,9.70
2008,04,28,04,22,9.70
2008,04,28,04,23,9.70
2008,04,28,04,24,9.70
2008,04,28,04,25,9.70
2008,04,28,04,26,9.70
2008,04,28,04,27,9.70
2008,04,28,04,28,9.70
2008,04,28,04,29,9.70
2008,04,28,04,30,9.70
2008,04,28,04,31,9.70
2008,04,28,04,32,9.70
2008,04,28,04,33,9.70
2008,04,28,04,34,9.60
2008,04,28,04,35,9.60
2008,04,28,04,36,9.60
2008,04,28,04,37,9.50
2008,04,28,04,38,9.50
2008,04,28,04,39,9.50
2008,04,28,04,40,9.50
2008,04,28,04,41,9.40
2008,04,28,04,42,9.40
2008,04,28,04,43,9.40
2008,04,28,04,44,9.40
2008,04,28,04,45,9.30
2008,04,28,04,46,9.30
2008,04,28,04,47,9.30
2008,04,28,04,48,9.30
2008,04,28,04,49,9.20
2008,04,28,04,50,9.20
2008,04,28,04,51,9.20
2008,04,28,04,52,9.20
2008,04,28,04,53,9.20
2008,04,28,04,54,9.20
2008,04,28,04,55,9.20
2008,04,28,04,56,9.20
2008,04,28,04,57,9.20
2008,04,28,04,58,9.20
2008,04,28,04,59,9.20
2008,04,28,05,00,9.20
2008,04,28,05,01,9.10
2008,04,28,05,02,9.10
2008,04,28,05,03,9.10
2008,04,28,05,04,9.10
2008,04,28,05,05,9.10
2008,04,28,05,06,9.10
2008,04,28,05,07,9.10
2008,04,28,05,08,9.10
2008,04,28,05,09,9.10
2008,04,28,05,10,9.10
2008,04,28,05,11,9.10
2008,04,28,05,12,9.10
2008,04,28,05,13,9.10
2008,04,28,05,14,9.10
2008,04,28,05,15,9.10
2008,04,28,05,16,9.10
2008,04,28,05,17,9.10
2008,04,28,05,18,9.10
2008,04,28,05,19,9.10
2008,04,28,05,20,9.10
2008,04,28,05,21,9.10
2008,04,28,05,22,9.10
2008,04,28,05,23,9.10
2008,04,28,05,24,9.10
2008,04,28,05,25,9.10
2008,04,28,05,26,9.20
2008,04,28,05,27,9.20
2008,04,28,05,28,9.20
2008,04,28,05,29,9.20
2008,04,28,05,30,9.20
2008,04,28,05,31,9.20
2008,04,28,05,32,9.20
2008,04,28,05,33,9.20
2008,04,28,05,34,9.20
2008,04,28,05,35,9.20
2008,04,28,05,36,9.20
2008,04,28,05,37,9.20
2008,04,28,05,38,9.20
2008,04,28,05,39,9.20
2008,04,28,05,40,9.20
2008,04,28,05,41,9.20
2008,04,28,05,42,9.20
2008,04,28,05,43,9.30
2008,04,28,05,44,9.30
2008,04,28,05,45,9.30
2008,04,28,05,46,9.30
2008,04,28,05,47,9.30
2008,04,28,05,48,9.30
2008,04,28,05,49,9.30
2008,04,28,05,50,9.30
2008,04,28,05,51,9.30
2008,04,28,05,52,9.30
2008,04,28,05,53,9.30
2008,04,28,05,54,9.30
2008,04,28,05,55,9.30
2008,04,28,05,56,9.30
2008,04,28,05,57,9.30
2008,04,28,05,58,9.30
2008,04,28,05,59,9.30
2008,04,28,06,00,9.30
2008,04,28,06,01,9.30
2008,04,28,06,02,9.30
2008,04,28,06,03,9.30
2008,04,28,06,04,9.30
2008,04,28,06,05,9.30
2008,04,28,06,06,9.30
2008,04,28,06,07,9.30
2008,04,28,06,08,9.30
2008,04,28,06,09,9.30
2008,04,28,06,10,9.30
2008,04,28,06,11,9.30
2008,04,28,06,12,9.20
2008,04,28,06,13,9.20
2008,04,28,06,14,9.20
2008,04,28,06,15,9.10
2008,04,28,06,16,9.10
2008,04,28,06,17,9.00
2008,04,28,06,18,8.90
2008,04,28,06,19,8.90
2008,04,28,06,20,8.80
2008,04,28,06,21,8.80
2008,04,28,06,22,8.80
2008,04,28,06,23,8.70
2008,04,28,06,24,8.70
2008,04,28,06,25,8.70
2008,04,28,06,26,8.70
2008,04,28,06,27,8.70
2008,04,28,06,28,8.70
2008,04,28,06,29,8.70
2008,04,28,06,30,8.70
2008,04,28,06,31,8.60
2008,04,28,06,32,8.60
2008,04,28,06,33,8.60
2008,04,28,06,34,8.60
2008,04,28,06,35,8.50
2008,04,28,06,36,8.50
2008,04,28,06,37,8.50
2008,04,28,06,38,8.50
2008,04,28,06,39,8.60
2008,04,28,06,40,8.60
2008,04,28,06,41,8.60
2008,04,28,06,42,8.70
2008,04,28,06,43,8.70
2008,04,28,06,44,8.70
2008,04,28,06,45,8.70
2008,04,28,06,46,8.70
2008,04,28,06,47,8.70
2008,04,28,06,48,8.70
2008,04,28,06,49,8.70
2008,04,28,06,50,8.70
2008,04,28,06,51,8.70
2008,04,28,06,52,8.70
2008,04,28,06,53,8.70
2008,04,28,06,54,8.70
2008,04,28,06,55,8.70
2008,04,28,06,56,8.70
2008,04,28,06,57,8.70
2008,04,28,06,58,8.70
2008,04,28,06,59,8.70
2008,04,28,07,00,8.70
2008,04,28,07,01,8.70
2008,04,28,07,02,8.70
2008,04,28,07,03,8.60
2008,04,28,07,04,8.60
2008,04,28,07,05,8.60
2008,04,28,07,06,8.60
2008,04,28,07,07,8.60
2008,04,28,07,08,8.60
2008,04,28,07,09,8.60
2008,04,28,07,10,8.60
2008,04,28,07,11,8.60
2008,04,28,07,12,8.60
2008,04,28,07,13,8.50
2008,04,28,07,14,8.50
2008,04,28,07,15,8.50
2008,04,28,07,16,8.50
2008,04,28,07,17,8.50
2008,04,28,07,18,8.50
2008,04,28,07,19,8.50
2008,04,28,07,20,8.50
2008,04,28,07,21,8.50
2008,04,28,07,22,8.50
2008,04,28,07,23,8.60
2008,04,28,07,24,8.60
2008,04,28,07,25,8.60
2008,04,28,07,26,8.70
2008,04,28,07,27,8.70
2008,04,28,07,28,8.70
2008,04,28,07,29,8.70
2008,04,28,07,30,8.70
2008,04,28,07,31,8.70
2008,04,28,07,32,8.70
2008,04,28,07,33,8.80
2008,04,28,07,34,8.80
2008,04,28,07,35,8.90
2008,04,28,07,36,8.90
2008,04,28,07,37,8.90
2008,04,28,07,38,9.00
2008,04,28,07,39,9.00
2008,04,28,07,40,9.00
2008,04,28,07,41,9.00
2008,04,28,07,42,9.10
2008,04,28,07,43,9.10
2008,04,28,07,44,9.10
2008,04,28,07,45,9.20
2008,04,28,07,46,9.20
2008,04,28,07,47,9.20
2008,04,28,07,48,9.20
2008,04,28,07,49,9.20
2008,04,28,07,50,9.20
2008,04,28,07,51,9.20
2008,04,28,07,52,9.20
2008,04,28,07,53,9.20
2008,04,28,07,54,9.30
2008,04,28,07,55,9.30
2008,04,28,07,56,9.30
2008,04,28,07,57,9.40
2008,04,28,07,58,9.40
2008,04,28,07,59,9.40
2008,04,28,08,00,9.50
2008,04,28,08,01,9.50
2008,04,28,08,02,9.60
2008,04,28,08,03,9.70
2008,04,28,08,04,9.70
2008,04,28,08,05,9.70
2008,04,28,08,06,9.80
2008,04,28,08,07,9.90
2008,04,28,08,08,9.90
2008,04,28,08,09,9.90
2008,04,28,08,10,10.00
2008,04,28,08,11,10.10
2008,04,28,08,12,10.10
2008,04,28,08,13,10.10
2008,04,28,08,14,10.10
2008,04,28,08,15,10.20
2008,04,28,08,16,10.20
2008,04,28,08,17,10.30
2008,04,28,08,18,10.40
2008,04,28,08,19,10.40
2008,04,28,08,20,10.30
2008,04,28,08,21,10.30
2008,04,28,08,22,10.40
2008,04,28,08,23,10.50
2008,04,28,08,24,10.60
2008,04,28,08,25,10.60
2008,04,28,08,26,10.60
2008,04,28,08,27,10.60
2008,04,28,08,28,10.60
2008,04,28,08,29,10.50
2008,04,28,08,30,10.40
2008,04,28,08,31,10.40
2008,04,28,08,32,10.50
2008,04,28,08,33,10.60
2008,04,28,08,34,10.40
2008,04,28,08,35,10.40
2008,04,28,08,36,10.30
2008,04,28,08,37,10.30
2008,04,28,08,38,10.20
2008,04,28,08,39,10.20
2008,04,28,08,40,10.10
2008,04,28,08,41,10.10
2008,04,28,08,42,10.10
2008,04,28,08,43,10.10
2008,04,28,08,44,10.10
2008,04,28,08,45,10.10
2008,04,28,08,46,10.10
2008,04,28,08,47,10.10
2008,04,28,08,48,10.10
2008,04,28,08,49,10.10
2008,04,28,08,50,10.00
2008,04,28,08,51,9.90
2008,04,28,08,52,10.00
2008,04,28,08,53,10.10
2008,04,28,08,54,10.10
2008,04,28,08,55,10.10
2008,04,28,08,56,10.20
2008,04,28,08,57,10.20
2008,04,28,08,58,10.20
2008,04,28,08,59,10.20
2008,04,28,09,00,10.30
2008,04,28,09,01,10.20
2008,04,28,09,02,10.20
2008,04,28,09,03,10.20
2008,04,28,09,04,10.10
2008,04,28,09,05,10.10
2008,04,28,09,06,10.10
2008,04,28,09,07,10.10
2008,04,28,09,08,10.10
2008,04,28,09,09,10.20
2008,04,28,09,10,10.20
2008,04,28,09,11,10.10
2008,04,28,09,12,10.10
2008,04,28,09,13,10.10
2008,04,28,09,14,10.10
2008,04,28,09,15,10.10
2008,04,28,09,16,10.20
2008,04,28,09,17,10.20
2008,04,28,09,18,10.20
2008,04,28,09,19,10.30
2008,04,28,09,20,10.30
2008,04,28,09,21,10.40
2008,04,28,09,22,10.40
2008,04,28,09,23,10.40
2008,04,28,09,24,10.40
2008,04,28,09,25,10.40
2008,04,28,09,26,10.40
2008,04,28,09,27,10.40
2008,04,28,09,28,10.30
2008,04,28,09,29,10.30
2008,04,28,09,30,10.30
2008,04,28,09,31,10.30
2008,04,28,09,32,10.30
2008,04,28,09,33,10.30
2008,04,28,09,34,10.20
2008,04,28,09,35,10.20
2008,04,28,09,36,10.10
2008,04,28,09,37,10.10
2008,04,28,09,38,10.10
2008,04,28,09,39,10.00
2008,04,28,09,40,10.00
2008,04,28,09,41,10.10
2008,04,28,09,42,10.10
2008,04,28,09,43,10.00
2008,04,28,09,44,9.90
2008,04,28,09,45,9.90
2008,04,28,09,46,9.90
2008,04,28,09,47,9.80
2008,04,28,09,48,9.80
2008,04,28,09,49,9.80
2008,04,28,09,50,9.80
2008,04,28,09,51,9.70
2008,04,28,09,52,9.70
2008,04,28,09,53,9.70
2008,04,28,09,54,9.70
2008,04,28,09,55,9.70
2008,04,28,09,56,9.70
2008,04,28,09,57,9.70
2008,04,28,09,58,9.70
2008,04,28,09,59,9.70
2008,04,28,10,00,9.80
2008,04,28,10,01,9.80
2008,04,28,10,02,9.80
2008,04,28,10,03,9.90
2008,04,28,10,04,9.90
2008,04,28,10,05,9.90
2008,04,28,10,06,9.90
2008,04,28,10,07,9.90
2008,04,28,10,08,9.90
2008,04,28,10,09,9.90
2008,04,28,10,10,10.10
2008,04,28,10,11,10.10
2008,04,28,10,12,10.10
2008,04,28,10,13,10.10
2008,04,28,10,14,10.10
2008,04,28,10,15,10.00
2008,04,28,10,16,10.00
2008,04,28,10,17,9.90
2008,04,28,10,18,9.90
2008,04,28,10,19,9.90
2008,04,28,10,20,9.90
2008,04,28,10,21,9.90
2008,04,28,10,22,9.80
2008,04,28,10,23,9.80
2008,04,28,10,24,9.70
2008,04,28,10,25,9.70
2008,04,28,10,26,9.70
2008,04,28,10,27,9.70
2008,04,28,10,28,9.80
2008,04,28,10,29,9.90
2008,04,28,10,30,9.90
2008,04,28,10,31,9.90
2008,04,28,10,32,9.90
2008,04,28,10,33,10.10
2008,04,28,10,34,10.10
2008,04,28,10,35,10.10
2008,04,28,10,36,10.10
2008,04,28,10,37,10.10
2008,04,28,10,38,10.10
2008,04,28,10,39,10.00
2008,04,28,10,40,9.90
2008,04,28,10,41,9.90
2008,04,28,10,42,9.90
2008,04,28,10,43,9.80
2008,04,28,10,44,9.80
2008,04,28,10,45,9.80
2008,04,28,10,46,9.80
2008,04,28,10,47,9.80
2008,04,28,10,48,9.80
2008,04,28,10,49,9.80
2008,04,28,10,50,9.90
2008,04,28,10,51,9.90
2008,04,28,10,52,9.90
2008,04,28,10,53,9.90
2008,04,28,10,54,9.90
2008,04,28,10,55,9.80
2008,04,28,10,56,9.80
2008,04,28,10,57,9.80
2008,04,28,10,58,9.80
2008,04,28,10,59,9.90
2008,04,28,11,00,9.90
2008,04,28,11,01,9.90
2008,04,28,11,02,9.90
2008,04,28,11,03,9.90
2008,04,28,11,04,10.10
2008,04,28,11,05,10.10
2008,04,28,11,06,10.10
2008,04,28,11,07,10.20
2008,04,28,11,08,10.20
2008,04,28,11,09,10.30
2008,04,28,11,10,10.40
2008,04,28,11,11,10.30
2008,04,28,11,12,10.40
2008,04,28,11,13,10.60
2008,04,28,11,14,10.60
2008,04,28,11,15,10.60
2008,04,28,11,16,10.70
2008,04,28,11,17,10.80
2008,04,28,11,18,10.80
2008,04,28,11,19,10.80
2008,04,28,11,20,10.80
2008,04,28,11,21,10.80
2008,04,28,11,22,10.60
2008,04,28,11,23,10.60
2008,04,28,11,24,10.80
2008,04,28,11,25,11.00
2008,04,28,11,26,11.10
2008,04,28,11,27,11.20
2008,04,28,11,28,11.10
2008,04,28,11,29,11.20
2008,04,28,11,30,11.20
2008,04,28,11,31,11.30
2008,04,28,11,32,11.40
2008,04,28,11,33,11.60
2008,04,28,11,34,11.60
2008,04,28,11,35,11.60
2008,04,28,11,36,11.80
2008,04,28,11,37,11.80
2008,04,28,11,38,11.80
2008,04,28,11,39,11.90
2008,04,28,11,40,12.10
2008,04,28,11,41,12.30
2008,04,28,11,42,12.40
2008,04,28,11,43,12.60
2008,04,28,11,44,12.70
2008,04,28,11,45,12.80
2008,04,28,11,46,13.00
2008,04,28,11,47,13.20
2008,04,28,11,48,13.30
2008,04,28,11,49,13.40
2008,04,28,11,50,13.40
2008,04,28,11,51,13.50
2008,04,28,11,52,13.70
2008,04,28,11,53,13.70
2008,04,28,11,54,13.80
2008,04,28,11,55,13.80
2008,04,28,11,56,13.80
2008,04,28,11,57,13.80
2008,04,28,11,58,13.70
2008,04,28,11,59,13.70
2008,04,28,12,00,13.70
2008,04,28,12,01,13.60
2008,04,28,12,02,13.60
2008,04,28,12,03,13.70
2008,04,28,12,04,13.70
2008,04,28,12,05,13.70
2008,04,28,12,06,13.70
2008,04,28,12,07,13.80
2008,04,28,12,08,13.90
2008,04,28,12,09,13.90
2008,04,28,12,10,13.90
2008,04,28,12,11,13.90
2008,04,28,12,12,13.90
2008,04,28,12,13,13.90
2008,04,28,12,14,13.90
2008,04,28,12,15,13.90
2008,04,28,12,16,13.90
2008,04,28,12,17,13.90
2008,04,28,12,18,13.80
2008,04,28,12,19,13.70
2008,04,28,12,20,13.70
2008,04,28,12,21,13.70
2008,04,28,12,22,13.60
2008,04,28,12,23,13.60
2008,04,28,12,24,13.60
2008,04,28,12,25,13.50
2008,04,28,12,26,13.40
2008,04,28,12,27,13.40
2008,04,28,12,28,13.30
2008,04,28,12,29,13.30
2008,04,28,12,30,13.30
2008,04,28,12,31,13.30
2008,04,28,12,32,13.30
2008,04,28,12,33,13.30
2008,04,28,12,34,13.40
2008,04,28,12,35,13.50
2008,04,28,12,36,13.40
2008,04,28,12,37,13.40
2008,04,28,12,38,13.30
2008,04,28,12,39,13.20
2008,04,28,12,40,13.10
2008,04,28,12,41,12.90
2008,04,28,12,42,12.70
2008,04,28,12,43,12.40
2008,04,28,12,44,12.30
2008,04,28,12,45,12.40
2008,04,28,12,46,12.40
2008,04,28,12,47,12.40
2008,04,28,12,48,12.60
2008,04,28,12,49,12.70
2008,04,28,12,50,12.80
2008,04,28,12,51,12.80
2008,04,28,12,52,12.90
2008,04,28,12,53,13.00
2008,04,28,12,54,13.20
2008,04,28,12,55,13.30
2008,04,28,12,56,13.30
2008,04,28,12,57,13.40
2008,04,28,12,58,13.40
2008,04,28,12,59,13.30
2008,04,28,13,00,13.30
2008,04,28,13,01,13.30
2008,04,28,13,02,13.30
2008,04,28,13,03,13.30
2008,04,28,13,04,13.20
2008,04,28,13,05,13.30
2008,04,28,13,06,13.30
2008,04,28,13,07,13.30
2008,04,28,13,08,13.40
2008,04,28,13,09,13.30
2008,04,28,13,10,13.30
2008,04,28,13,11,13.30
2008,04,28,13,12,13.30
2008,04,28,13,13,13.30
2008,04,28,13,14,13.40
2008,04,28,13,15,13.50
2008,04,28,13,16,13.60
2008,04,28,13,17,13.70
2008,04,28,13,18,13.70
2008,04,28,13,19,13.80
2008,04,28,13,20,13.90
2008,04,28,13,21,13.90
2008,04,28,13,22,14.10
2008,04,28,13,23,14.20
2008,04,28,13,24,14.00
2008,04,28,13,25,13.90
2008,04,28,13,26,13.80
2008,04,28,13,27,13.90
2008,04,28,13,28,14.00
2008,04,28,13,29,14.00
2008,04,28,13,30,14.00
2008,04,28,13,31,14.10
2008,04,28,13,32,14.20
2008,04,28,13,33,14.20
2008,04,28,13,34,14.20
2008,04,28,13,35,14.20
2008,04,28,13,36,14.20
2008,04,28,13,37,14.10
2008,04,28,13,38,14.00
2008,04,28,13,39,14.00
2008,04,28,13,40,14.00
2008,04,28,13,41,14.00
2008,04,28,13,42,14.10
2008,04,28,13,43,14.20
2008,04,28,13,44,14.20
2008,04,28,13,45,14.20
2008,04,28,13,46,14.20
2008,04,28,13,47,14.20
2008,04,28,13,48,14.30
2008,04,28,13,49,14.40
2008,04,28,13,50,14.50
2008,04,28,13,51,14.60
2008,04,28,13,52,14.60
2008,04,28,13,53,14.60
2008,04,28,13,54,14.60
2008,04,28,13,55,14.70
2008,04,28,13,56,14.80
2008,04,28,13,57,14.90
2008,04,28,13,58,14.90
2008,04,28,13,59,14.90
2008,04,28,14,00,14.90
2008,04,28,14,01,14.80
2008,04,28,14,02,14.90
2008,04,28,14,03,14.90
2008,04,28,14,04,14.80
2008,04,28,14,05,14.80
2008,04,28,14,06,14.80
2008,04,28,14,07,14.70
2008,04,28,14,08,14.50
2008,04,28,14,09,14.50
2008,04,28,14,10,14.40
2008,04,28,14,11,14.50
2008,04,28,14,12,14.50
2008,04,28,14,13,14.50
2008,04,28,14,14,14.50
2008,04,28,14,15,14.50
2008,04,28,14,16,14.50
2008,04,28,14,17,14.60
2008,04,28,14,18,14.70
2008,04,28,14,19,14.80
2008,04,28,14,20,14.80
2008,04,28,14,21,14.70
2008,04,28,14,22,14.70
2008,04,28,14,23,14.70
2008,04,28,14,24,14.60
2008,04,28,14,25,14.60
2008,04,28,14,26,14.60
2008,04,28,14,27,14.60
2008,04,28,14,28,14.60
2008,04,28,14,29,14.60
2008,04,28,14,30,14.60
2008,04,28,14,31,14.60
2008,04,28,14,32,14.60
2008,04,28,14,33,14.50
2008,04,28,14,34,14.40
2008,04,28,14,35,14.10
2008,04,28,14,36,13.60
2008,04,28,14,37,13.30
2008,04,28,14,38,13.10
2008,04,28,14,39,12.70
2008,04,28,14,40,12.30
2008,04,28,14,41,12.10
2008,04,28,14,42,12.10
2008,04,28,14,43,12.00
2008,04,28,14,44,11.80
2008,04,28,14,45,11.80
2008,04,28,14,46,11.80
2008,04,28,14,47,11.70
2008,04,28,14,48,11.60
2008,04,28,14,49,11.60
2008,04,28,14,50,11.40
2008,04,28,14,51,11.40
2008,04,28,14,52,11.40
2008,04,28,14,53,11.40
2008,04,28,14,54,11.40
2008,04,28,14,55,11.20
2008,04,28,14,56,11.20
2008,04,28,14,57,11.10
2008,04,28,14,58,11.10
2008,04,28,14,59,11.10
2008,04,28,15,00,11.10
2008,04,28,15,01,11.10
2008,04,28,15,02,11.10
2008,04,28,15,03,11.20
2008,04,28,15,04,11.20
2008,04,28,15,05,11.30
2008,04,28,15,06,11.30
2008,04,28,15,07,11.30
2008,04,28,15,08,11.30
2008,04,28,15,09,11.30
2008,04,28,15,10,11.20
2008,04,28,15,11,11.10
2008,04,28,15,12,11.00
2008,04,28,15,13,10.90
2008,04,28,15,14,10.80
2008,04,28,15,15,10.70
2008,04,28,15,16,10.70
2008,04,28,15,17,10.60
2008,04,28,15,18,10.60
2008,04,28,15,19,10.60
2008,04,28,15,20,10.60
2008,04,28,15,21,10.60
2008,04,28,15,22,10.70
2008,04,28,15,23,10.80
2008,04,28,15,24,10.90
2008,04,28,15,25,10.90
2008,04,28,15,26,10.90
2008,04,28,15,27,10.90
2008,04,28,15,28,10.90
2008,04,28,15,29,10.90
2008,04,28,15,30,10.90
2008,04,28,15,31,10.90
2008,04,28,15,32,11.00
2008,04,28,15,33,11.10
2008,04,28,15,34,11.10
2008,04,28,15,35,11.20
2008,04,28,15,36,11.20
2008,04,28,15,37,11.20
2008,04,28,15,38,11.20
2008,04,28,15,39,11.30
2008,04,28,15,40,11.40
2008,04,28,15,41,11.40
2008,04,28,15,42,11.40
2008,04,28,15,43,11.50
2008,04,28,15,44,11.60
2008,04,28,15,45,11.60
2008,04,28,15,46,11.60
2008,04,28,15,47,11.60
2008,04,28,15,48,11.70
2008,04,28,15,49,11.70
2008,04,28,15,50,11.70
2008,04,28,15,51,11.80
2008,04,28,15,52,11.80
2008,04,28,15,53,11.80
2008,04,28,15,54,11.90
2008,04,28,15,55,11.90
2008,04,28,15,56,11.90
2008,04,28,15,57,11.90
2008,04,28,15,58,11.90
2008,04,28,15,59,11.90
2008,04,28,16,00,11.90
2008,04,28,16,01,11.80
2008,04,28,16,02,11.80
2008,04,28,16,03,11.80
2008,04,28,16,04,11.90
2008,04,28,16,05,11.90
2008,04,28,16,06,11.90
2008,04,28,16,07,11.90
2008,04,28,16,08,11.90
2008,04,28,16,09,12.00
2008,04,28,16,10,12.00
2008,04,28,16,11,12.00
2008,04,28,16,12,12.10
2008,04,28,16,13,12.10
2008,04,28,16,14,12.20
2008,04,28,16,15,12.20
2008,04,28,16,16,12.20
2008,04,28,16,17,12.30
2008,04,28,16,18,12.30
2008,04,28,16,19,12.30
2008,04,28,16,20,12.30
2008,04,28,16,21,12.40
2008,04,28,16,22,12.40
2008,04,28,16,23,12.30
2008,04,28,16,24,12.30
2008,04,28,16,25,12.30
2008,04,28,16,26,12.30
2008,04,28,16,27,12.30
2008,04,28,16,28,12.20
2008,04,28,16,29,12.20
2008,04,28,16,30,12.20
2008,04,28,16,31,12.10
2008,04,28,16,32,12.00
2008,04,28,16,33,11.90
2008,04,28,16,34,11.90
2008,04,28,16,35,11.80
2008,04,28,16,36,11.80
2008,04,28,16,37,11.70
2008,04,28,16,38,11.60
2008,04,28,16,39,11.60
2008,04,28,16,40,11.60
2008,04,28,16,41,11.60
2008,04,28,16,42,11.40
2008,04,28,16,43,11.40
2008,04,28,16,44,11.40
2008,04,28,16,45,11.30
2008,04,28,16,46,11.30
2008,04,28,16,47,11.20
2008,04,28,16,48,11.20
2008,04,28,16,49,11.10
2008,04,28,16,50,11.10
2008,04,28,16,51,10.90
2008,04,28,16,52,10.90
2008,04,28,16,53,10.80
2008,04,28,16,54,10.70
2008,04,28,16,55,10.60
2008,04,28,16,56,10.60
2008,04,28,16,57,10.60
2008,04,28,16,58,10.50
2008,04,28,16,59,10.40
2008,04,28,17,00,10.40
2008,04,28,17,01,10.30
2008,04,28,17,02,10.30
2008,04,28,17,03,10.20
2008,04,28,17,04,10.20
2008,04,28,17,05,10.20
2008,04,28,17,06,10.20
2008,04,28,17,07,10.20
2008,04,28,17,08,10.10
2008,04,28,17,09,10.10
2008,04,28,17,10,10.00
2008,04,28,17,11,9.90
2008,04,28,17,12,9.90
2008,04,28,17,13,9.80
2008,04,28,17,14,9.80
2008,04,28,17,15,9.80
2008,04,28,17,16,9.80
2008,04,28,17,17,9.80
2008,04,28,17,18,9.70
2008,04,28,17,19,9.70
2008,04,28,17,20,9.70
2008,04,28,17,21,9.70
2008,04,28,17,22,9.70
2008,04,28,17,23,9.70
2008,04,28,17,24,9.70
2008,04,28,17,25,9.70
2008,04,28,17,26,9.70
2008,04,28,17,27,9.70
2008,04,28,17,28,9.70
2008,04,28,17,29,9.70
2008,04,28,17,30,9.70
2008,04,28,17,31,9.70
2008,04,28,17,32,9.70
2008,04,28,17,33,9.70
2008,04,28,17,34,9.70
2008,04,28,17,35,9.70
2008,04,28,17,36,9.70
2008,04,28,17,37,9.80
2008,04,28,17,38,9.80
2008,04,28,17,39,9.80
2008,04,28,17,40,9.80
2008,04,28,17,41,9.90
2008,04,28,17,42,9.90
2008,04,28,17,43,9.90
2008,04,28,17,44,9.90
2008,04,28,17,45,9.90